EW8080 Weather Reports


Display with metric or nautical units.
time (UTC)temp
F
wind
direction
speed
MPH
gust
MPH
rain 1hr
in
rain 24hr
in
rain mn
in
humidity
%
barometer
mb
20260510231004 57 210 5.0 12.0 0.00 0.14 0.00 87 1013.1
20260510230003 57 204 5.0 14.0 0.00 0.15 0.00 86 1013.0
20260510225003 58 195 6.0 14.0 0.00 0.16 0.00 85 1012.8
20260510224003 58 224 5.0 14.0 0.00 0.17 0.00 85 1012.9
20260510223004 59 181 8.0 13.0 0.00 0.17 0.00 84 1012.6
20260510222003 59 179 8.0 11.0 0.00 0.17 0.00 84 1012.4
20260510221003 60 206 8.0 12.0 0.00 0.17 0.00 83 1012.5
20260510220003 60 189 5.0 12.0 0.00 0.18 0.00 83 1012.6
20260510215003 60 193 6.0 13.0 0.00 0.18 0.00 83 1012.7
20260510214003 61 181 10.0 13.0 0.00 0.19 0.00 82 1012.7
20260510213003 61 195 8.0 13.0 0.00 0.19 0.00 81 1012.6
20260510212003 62 183 9.0 15.0 0.00 0.19 0.00 80 1012.6
20260510211003 62 185 7.0 20.0 0.00 0.20 0.00 80 1012.6
20260510210003 63 189 9.0 20.0 0.00 0.20 0.00 79 1012.4
20260510205003 63 179 14.0 20.0 0.00 0.20 0.00 79 1012.6
20260510204003 63 166 14.0 21.0 0.00 0.20 0.00 79 1012.7
20260510203024 63 193 8.0 21.0 0.00 0.20 0.00 79 1012.6
20260510202003 63 181 13.0 19.0 0.00 0.20 0.00 78 1012.9
20260510201003 64 166 13.0 18.0 0.00 0.20 0.00 77 1012.8
20260510200003 64 166 12.0 16.0 0.00 0.20 0.00 77 1012.8
20260510195003 65 174 11.0 16.0 0.00 0.20 0.00 77 1012.7
20260510194003 65 173 11.0 17.0 0.00 0.20 0.00 77 1013.1
20260510193024 65 173 10.0 18.0 0.00 0.20 0.00 77 1013.0
20260510192003 65 195 9.0 18.0 0.00 0.20 0.00 76 1012.9
20260510191003 66 185 9.0 16.0 0.00 0.20 0.00 77 1012.9
20260510190024 66 168 10.0 16.0 0.00 0.20 0.00 77 1012.9
20260510185003 66 183 12.0 15.0 0.00 0.20 0.00 78 1013.2
20260510184003 65 192 9.0 17.0 0.00 0.20 0.00 79 1013.1
20260510183003 64 172 12.0 17.0 0.00 0.20 0.00 81 1013.4
20260510182024 64 208 7.0 14.0 0.00 0.20 0.00 85 1013.4
20260510181003 66 197 7.0 13.0 0.00 0.20 0.00 78 1013.6
20260510180003 67 206 9.0 15.0 0.00 0.20 0.00 76 1013.5
20260510175003 68 228 7.0 15.0 0.00 0.20 0.00 75 1013.6
20260510174003 68 229 8.0 15.0 0.00 0.20 0.00 75 1013.3
20260510173003 68 189 7.0 15.0 0.00 0.20 0.00 76 1013.3
20260510172003 67 188 13.0 16.0 0.00 0.20 0.00 75 1013.2
20260510171024 67 202 8.0 17.0 0.00 0.20 0.00 75 1013.1
20260510170003 67 194 8.0 19.0 0.00 0.20 0.00 76 1013.4
20260510165003 67 187 10.0 19.0 0.00 0.20 0.00 76 1013.5
20260510164003 66 172 14.0 19.0 0.00 0.20 0.00 77 1013.6
20260510163003 66 176 13.0 21.0 0.00 0.20 0.00 77 1013.6
20260510162003 66 181 10.0 21.0 0.00 0.20 0.00 78 1014.0
20260510161024 66 211 11.0 21.0 0.00 0.20 0.00 78 1014.0
20260510160003 66 175 10.0 15.0 0.00 0.20 0.00 78 1013.7
20260510155003 65 203 7.0 15.0 0.00 0.20 0.00 80 1014.0
20260510154024 64 210 7.0 15.0 0.00 0.20 0.00 81 1014.1
20260510153003 64 223 7.0 15.0 0.00 0.20 0.00 82 1014.1
20260510152003 62 250 8.0 14.0 0.00 0.20 0.00 84 1014.1
20260510151003 62 213 7.0 14.0 0.00 0.20 0.00 84 1014.1
20260510150003 62 193 5.0 13.0 0.00 0.20 0.00 83 1014.2
20260510145003 63 212 7.0 13.0 0.00 0.20 0.00 83 1013.9
20260510144003 62 204 6.0 9.0 0.00 0.20 0.00 84 1014.1
20260510143003 62 203 6.0 9.0 0.00 0.20 0.00 85 1014.1
20260510142004 61 193 6.0 8.0 0.00 0.20 0.00 86 1014.0
20260510141024 60 214 4.0 11.0 0.00 0.20 0.00 87 1014.0
20260510140003 60 245 5.0 13.0 0.00 0.20 0.00 88 1014.0
20260510135024 60 218 6.0 16.0 0.00 0.20 0.00 88 1013.5
20260510134003 59 176 8.0 16.0 0.00 0.20 0.00 88 1013.1
20260510133003 59 183 9.0 13.0 0.00 0.20 0.00 89 1013.3
20260510132003 59 203 7.0 17.0 0.00 0.20 0.00 89 1013.2
20260510131003 59 181 5.0 17.0 0.00 0.20 0.00 89 1013.1
20260510130003 59 205 6.0 12.0 0.00 0.20 0.00 90 1013.1
20260510125003 59 222 5.0 12.0 0.00 0.20 0.00 91 1013.3
20260510124003 58 188 5.0 11.0 0.00 0.20 0.00 90 1013.1
20260510123003 58 203 6.0 9.0 0.00 0.20 0.00 91 1013.3
20260510122003 58 223 4.0 7.0 0.00 0.20 0.00 92 1013.3
20260510121003 58 194 3.0 7.0 0.00 0.20 0.00 92 1013.3
20260510120025 58 166 4.0 7.0 0.00 0.20 0.00 93 1013.4
20260510115024 57 176 4.0 7.0 0.00 0.20 0.00 93 1013.5
20260510114003 57 140 4.0 5.0 0.00 0.21 0.00 94 1013.5
20260510113003 56 155 2.0 6.0 0.00 0.22 0.00 95 1013.5
20260510112003 56 164 4.0 6.0 0.00 0.22 0.00 95 1013.4
20260510111003 56 181 5.0 6.0 0.00 0.23 0.00 96 1013.4
20260510110003 55 173 3.0 6.0 0.00 0.24 0.00 96 1013.4
20260510105003 55 185 3.0 6.0 0.00 0.24 0.00 96 1013.5
20260510104024 55 194 3.0 6.0 0.00 0.25 0.00 96 1013.3
20260510103003 55 220 2.0 6.0 0.00 0.25 0.00 96 1013.3
20260510102003 54 188 4.0 7.0 0.00 0.25 0.00 96 1013.2
20260510101003 54 190 4.0 7.0 0.00 0.25 0.00 96 1013.2
20260510100003 54 177 5.0 6.0 0.00 0.25 0.00 96 1013.1
20260510095003 54 192 2.0 7.0 0.00 0.25 0.00 96 1013.2
20260510094003 54 184 4.0 7.0 0.00 0.25 0.00 95 1012.9
20260510093003 54 185 2.0 5.0 0.00 0.25 0.00 95 1012.7
20260510092003 54 136 2.0 6.0 0.00 0.25 0.00 95 1012.7
20260510091003 54 203 3.0 6.0 0.00 0.25 0.00 95 1012.5
20260510090003 54 191 2.0 6.0 0.00 0.25 0.00 95 1012.6
20260510085004 54 207 3.0 6.0 0.00 0.25 0.00 95 1012.5
20260510084024 54 230 3.0 4.0 0.00 0.25 0.00 95 1012.6
20260510083004 54 227 2.0 6.0 0.00 0.25 0.00 96 1012.4
20260510082003 54 207 3.0 7.0 0.00 0.25 0.00 96 1012.5
20260510081003 54 216 4.0 11.0 0.00 0.25 0.00 96 1012.7
20260510080003 54 201 3.0 11.0 0.00 0.25 0.00 96 1012.4
20260510075003 54 219 3.0 6.0 0.00 0.25 0.00 96 1012.4
20260510074003 54 205 3.0 10.0 0.00 0.25 0.00 96 1012.3
20260510073003 54 211 4.0 12.0 0.00 0.25 0.00 97 1012.3
20260510072003 54 215 5.0 14.0 0.00 0.25 0.00 97 1012.3
20260510071025 54 219 6.0 15.0 0.00 0.25 0.00 97 1012.2
20260510070025 54 205 6.0 15.0 0.00 0.25 0.00 97 1012.1
20260510065024 54 214 7.0 13.0 0.00 0.25 0.00 97 1011.9
20260510064003 54 210 6.0 10.0 0.00 0.25 0.00 97 1012.1
20260510063003 54 205 5.0 13.0 0.00 0.25 0.00 97 1012.1
20260510062003 54 206 5.0 13.0 0.00 0.25 0.00 97 1012.1
20260510061003 54 218 5.0 14.0 0.00 0.25 0.00 97 1012.0
20260510060024 54 220 6.0 14.0 0.00 0.25 0.00 97 1012.1
20260510055024 54 209 6.0 26.0 0.00 0.25 0.00 97 1012.1
20260510054003 54 220 5.0 26.0 0.00 0.25 0.00 97 1012.3
20260510053003 54 205 7.0 19.0 0.00 0.25 0.00 97 1012.1
20260510052003 54 209 8.0 19.0 0.00 0.25 0.00 97 1012.0
20260510051003 54 183 10.0 19.0 0.00 0.25 0.00 96 1012.2
20260510050003 55 209 9.0 15.0 0.00 0.25 0.00 96 1012.1
20260510045024 55 221 7.0 19.0 0.00 0.25 0.00 96 1012.1
20260510044003 55 211 8.0 19.0 0.00 0.25 0.00 96 1012.2
20260510043024 55 210 9.0 20.0 0.00 0.25 0.00 96 1012.3
20260510042003 55 163 9.0 20.0 0.00 0.25 0.00 96 1012.3
20260510041003 54 197 11.0 20.0 0.00 0.25 0.00 95 1012.2
20260510040003 54 193 6.0 20.0 0.00 0.25 0.00 95 1012.2
20260510035003 54 176 9.0 22.0 0.02 0.25 0.25 95 1012.2
20260510034003 54 176 12.0 22.0 0.02 0.25 0.25 95 1011.9
20260510033003 54 169 14.0 22.0 0.02 0.25 0.25 94 1012.0
20260510032003 53 153 9.0 14.0 0.02 0.25 0.25 93 1012.3
20260510031003 53 159 6.0 19.0 0.02 0.25 0.25 92 1012.2
20260510030003 53 168 8.0 19.0 0.02 0.25 0.25 92 1012.3
20260510025003 53 150 11.0 15.0 0.01 0.24 0.24 91 1012.3
20260510024003 53 166 8.0 15.0 0.01 0.24 0.24 91 1012.7
20260510023003 53 156 7.0 16.0 0.02 0.23 0.23 90 1012.5
20260510022002 53 162 11.0 17.0 0.02 0.23 0.23 91 1012.8
20260510021002 53 151 10.0 17.0 0.03 0.23 0.23 91 1013.1
20260510020002 53 157 9.0 17.0 0.03 0.23 0.23 91 1013.6
20260510015003 53 164 12.0 17.0 0.03 0.23 0.23 92 1013.5
20260510014023 53 164 10.0 17.0 0.04 0.22 0.22 92 1013.5
20260510013023 53 167 10.0 20.0 0.04 0.22 0.22 92 1013.9
20260510012002 53 148 8.0 20.0 0.05 0.21 0.21 92 1014.0
20260510011002 53 178 11.0 19.0 0.05 0.21 0.21 92 1013.9
20260510010002 53 175 12.0 19.0 0.05 0.20 0.20 92 1014.3
20260510005023 54 192 6.0 16.0 0.06 0.20 0.20 92 1014.4
20260510004002 53 198 7.0 16.0 0.05 0.19 0.19 93 1014.3
20260510003023 54 197 11.0 16.0 0.06 0.17 0.17 92 1014.4
20260510002002 54 219 7.0 16.0 0.05 0.16 0.16 93 1014.1
20260510001002 54 209 11.0 16.0 0.05 0.16 0.16 92 1014.2
20260510000002 54 217 8.0 15.0 0.05 0.15 0.15 92 1014.4
20260509235002 54 251 8.0 14.0 0.05 0.14 0.14 91 1014.3
20260509234002 55 237 6.0 15.0 0.05 0.13 0.13 91 1014.1
20260509233002 55 212 6.0 15.0 0.04 0.12 0.12 91 1014.2
20260509232002 55 234 8.0 15.0 0.03 0.12 0.12 90 1013.9